COSMOS 1452

Satellite information

Favourite Embed

Satellite Type and Status

PAYLOADIN ORBIT

Key statistics

Satellite COSMOS 1452 at a glance.

Uptime

15586

Days in orbit

Revolutions

≈ 14.3

Per day

Orbit

LEO

Low Earth Orbit

Inclination

74.0

Latest

Satellite identification and parameters

Extended collection of information and parameters for COSMOS 1452.

Object identification

Identified? True

Debris? False

Object name: COSMOS 1452

International designator: 1983-031A

Object number (NORAD): 13991

Object ID (CCSDS): 13991

Country: COMMONWEALTH OF INDEPENDENT STATES (CIS)

Current information (Y/N): Y

RCS size: LARGE

Orbital parameters

Period: 100.423 minutes

Inclination: 74.0465 deg

SMA: 7156.769 km

Apoapsis: 790.327 km

Periapsis: 766.941 km

RAAN: 184.3422 deg

Eccentricy: 0.00163383

Argument of periapsis: 203.0501 deg

Mean anomaly: 330.8518 deg

Mean motion: 14.33927775 rev/day

Mean motion (dot): 0.00000219 rev/day2

B* drag term: 0.000087710216 1/REarth

Two-line elements (TLE)

Creation date: Dec. 12, 2025, 10:14 a.m.

Reference frame: TEME

Reference center: EARTH

Epoch: Dec. 12, 2025, 6:46 a.m. UTC

TLE line 0: 0 COSMOS 1452

TLE line 1: 1 13991U 83031A 25346.28213278 .00000219 00000-0 87710-4 0 9990

TLE line 2: 2 13991 74.0465 184.3422 0016338 203.0501 330.8518 14.33927775229826

Live tracking on map

Real-time ground track for satellite COSMOS 1452.

In-orbit conjunctions

A list of the most updated potential collisions computed for object COSMOS 1452.

Target Orbit TCA Probability of collision Miss distance Type
FENGYUN 1C DEB SSO 2025-08-25 07:51:04 0.0002662001 137.0 (m) DEBRIS
FENGYUN 1C DEB SSO 2025-07-27 23:17:33 0.0004205409 109.0 (m) DEBRIS
ISIS 1 DEB HEO 2025-07-16 01:30:31 0.0001526886 220.0 (m) DEBRIS
DMSP 5D-2 F13 DEB SSO 2025-06-27 06:15:18 0.001620938 234.0 (m) DEBRIS
CZ-6A DEB SSO 2025-04-06 08:09:42 0.001079936 184.0 (m) DEBRIS

Associated space launch

Military communications satellite

COSMOS 1452 was lifted into orbit during the mission ‘Kosmos-3M | Strela-2M 31’, on board a Kosmos-3M space rocket.

The launch took place on April 12, 1983, 6:20 p.m. from 132/2.

For more information about the launch, click the button.

Launch to space Kosmos-3M | Strela-2M 31
Kosmos-3M | Strela-2M 31

Agency: N/A

Status: Launch Successful

Launch date: April 12, 1983, 6:20 p.m. UTC

Rocket: Kosmos-3M

Launch pad: 132/2

Location: Plesetsk Cosmodrome, Russian Federation

...

Latest news about this satellite

There are no fresh news available about this satellite. Check back as we update our databases every day.


Newsletter sign-up

Weekly statistics, charts and insights to help you stay on top of the space industry.